Flag for Norway Weather past 2 weeks in Hamar, Norway

Now
53 °F

Cool.


Feels Like: 51 °F
Forecast: 44 / 52 °F
Wind: 6 mph from South

Location: Haugedalshogda

Current Time: May 24, 2015 at 1:59:04 PM

Latest Report: May 24, 2015 at 1:00 PM


Visibility: N/A

Pressure: 29.86 "Hg

Humidity: 42%

Dew point: 30 °F

Location of HamarLocation

Historic Weather in Hamar — Graph

°F

Hamar temperature yesterday

Maximum temperature yesterday: 60 °F (at 5:00 PM)
Minimum temperature yesterday: 35 °F (at 3:00 AM)
Average temperature yesterday: 48 °F

Past Weeks' High & Low Weather Summary

 TemperatureHumidityPressure
High60 °F (May 21, 3:00 PM)96% (May 13, 4:00 AM)30.17 "Hg (May 13, 4:00 AM)
Low22 °F (May 16, 4:00 AM)17% (May 9, 4:00 PM)29.50 "Hg (May 12, 8:00 PM)
Average44 °F69%29.83 "Hg
* Reported May 9 12:00 Noon — May 24 12:00 Noon, Hamar, Weather by CustomWeather, © 2015

Note: Actual official high and low records may vary slightly from our data, if they occured in-between our weather recording intervals... More about our weather records

Advertising

Hamar weather history for previous 24 hours

 ConditionsComfort  
Time TempWeatherWind HumidityBarometerVisibility
12:00 PM
Sun, May 24
51 °FCool.5 mph36%29.88 "HgN/A
11:00 AM47 °FCool.5 mph49%29.91 "HgN/A
10:00 AM47 °FCool.3 mph45%29.92 "HgN/A
9:00 AM45 °FCool.1 mph50%29.94 "HgN/A
6:00 AM32 °FChilly.1 mph86%29.98 "HgN/A
4:00 AM27 °FChilly.1 mph90%30.00 "HgN/A
3:00 AM24 °FCold.1 mph83%30.01 "HgN/A
2:00 AM30 °FChilly.1 mph72%29.99 "HgN/A
1:00 AM31 °FChilly.2 mph76%29.99 "HgN/A
12:00 AM34 °FChilly.2 mph67%29.99 "HgN/A
10:00 PM
Sat, May 23
46 °FCool.3 mph39%29.95 "HgN/A
9:00 PM51 °FCool.6 mph31%29.93 "HgN/A
8:00 PM53 °FCool.6 mph29%29.91 "HgN/A
7:00 PM56 °FRefreshingly cool.8 mph29%29.89 "HgN/A
6:00 PM58 °FRefreshingly cool.7 mph29%29.88 "HgN/A
5:00 PM60 °FRefreshingly cool.5 mph27%29.87 "HgN/A
4:00 PM59 °FRefreshingly cool.6 mph26%29.88 "HgN/A
3:00 PM57 °FRefreshingly cool.7 mph26%29.89 "HgN/A
2:00 PM56 °FRefreshingly cool.8 mph30%29.89 "HgN/A
1:00 PM56 °FRefreshingly cool.8 mph33%29.88 "HgN/A
Weather by CustomWeather, © 2015

See weather overviewHow to use our weather pages